Weather Roundup
Issued by NWS Chicago, IL

Home | Current Version | Previous Version | Text Only | Print | Product List | Glossary On
Versions: 1 2 3 4 5 6 7 8 9 10 11 12 13 14 15 16 17 18 19 20 21 22 23 24 25 26 27 28 29 30 31 32 33 34 35 36 37 38 39 40 41 42 43 44 45 46 47 48 49 50
000
NZUS59 KLOT 241000
HRRLOT

CHICAGO AREA WEATHER ROUNDUP
NATIONAL WEATHER SERVICE CHICAGO/ROMEOVILLE IL
500 AM CDT FRI OCT 24 2014

NOTE: "FAIR" INDICATES FEW OR NO CLOUDS BELOW 12,000 FEET WITH NO
SIGNIFICANT WEATHER AND/OR OBSTRUCTIONS TO VISIBILITY.

* THESE STATIONS ARE NOT UNDER NWS QUALITY CONTROL. THEY ALSO MAY NOT
  REPORT WEATHER SUCH AS PRECIPITATION OR FOG.

ILZ005-006-012>014-019>023-241100-
NORTHEAST ILLINOIS

CITY           SKY/WX    TMP DP  RH WIND       PRES   REMARKS
OHARE          CLOUDY    53  44  71 SW5       30.05R
MIDWAY         CLOUDY    55  46  71 S3        30.05S
AURORA         CLOUDY    47  43  86 CALM      30.06R
WAUKEGAN       PTCLDY    43  42  97 W3        30.05R
DUPAGE AIRPORT CLOUDY    51  46  83 CALM      30.05R
WHEELING       PTCLDY    49  43  80 CALM      30.07R
NORTHERLY IS     N/A     54  43  66 S3          N/A
$$

WIZ051-052-058>065-066-070>072-241100-
SOUTHEAST WISCONSIN

CITY           SKY/WX    TMP DP  RH WIND       PRES   REMARKS
MILWAUKEE      CLOUDY    52  49  89 W5        30.04S
KENOSHA*       CLOUDY    50  48  93 S3        30.04S FOG
RACINE*        CLOUDY    52  48  86 W5        30.06S
$$

INZ001>003-010>013-019-020-241100-
NORTHWEST INDIANA

CITY           SKY/WX    TMP DP  RH WIND       PRES   REMARKS
GARY*          CLOUDY    54  45  71 S3        30.07R
MICHIGAN CITY* NOT AVBL
RENSSELAER*    NOT AVBL
$$

LMZ740>746-241100-
SOUTHERN LAKE MICHIGAN

STATION/POSITION TIME  SKY/WX   TEMP WIND        PRES    VSBY
                                AIR  DIR/SP/G
                 (UTC)          (F)  (DEG/KT/KT) (MB)    (MI)
HARRISON CRIB    0900            55  210/ 10/ 11   N/A
BURNHAM HARBOR   1000            54  200/  2/  6   N/A
CALUMET HARBOR   0900            54  220/  2/  4 1016.6R
BURNS HARBOR     NOT AVBL
MICHIGAN CITY    0900            53  170/  7/  8   N/A
$$

ABBREVIATIONS USED IN REMARKS
   TC - TEMPERATURE IN CELSIUS
  WCI - WIND CHILL INDEX
   HX - HEAT INDEX
  VSB - VISIBILITY
$$



USA.gov is the U.S. government's official web portal to all federal, state and local government web resources and services.